THY6TG LTFM-LTFE

Flight info

Callsign THY6TG
Flight time 0h 53m
Altitude 36000
Route IVGUS1E/36 IVGUS UM19 OZNEF OZNE1J
Aircraft B738/M-VGDW/C

Departure

Time 2026-05-04 12:45
Airport İstanbul Airport (LTFM)

Arrival

Time 2026-05-04 13:38
Airport Milas Bodrum International Airport (LTFE)
Time Latitude Longitude Altitude Speed Heading
2026-05-04 12:31 41.26189 28.74834 312 ft 0 kts 251°
2026-05-04 12:36 41.26189 28.74835 313 ft 0 kts 251°
2026-05-04 12:36 41.26189 28.74834 312 ft 0 kts 251°
2026-05-04 12:37 41.26193 28.74853 311 ft 2 kts 251°
2026-05-04 12:37 41.26199 28.74873 310 ft 2 kts 251°
2026-05-04 12:37 41.26204 28.74893 312 ft 2 kts 251°
2026-05-04 12:37 41.26210 28.74923 312 ft 4 kts 266°
2026-05-04 12:38 41.26206 28.74958 311 ft 4 kts 299°
2026-05-04 12:38 41.26187 28.74979 312 ft 3 kts 334°
2026-05-04 12:38 41.26178 28.74984 312 ft 0 kts 341°
2026-05-04 12:42 41.26179 28.74984 312 ft 0 kts 341°
2026-05-04 12:42 41.26196 28.74983 312 ft 6 kts
2026-05-04 12:42 41.26236 28.75028 312 ft 10 kts 77°
2026-05-04 12:42 41.26240 28.75119 312 ft 10 kts 89°
2026-05-04 12:43 41.26241 28.75209 313 ft 10 kts 89°
2026-05-04 12:43 41.26241 28.75297 313 ft 10 kts 89°
2026-05-04 12:43 41.26243 28.75421 313 ft 17 kts 89°
2026-05-04 12:43 41.26244 28.75579 313 ft 17 kts 89°
2026-05-04 12:44 41.26250 28.75647 315 ft 6 kts 66°
2026-05-04 12:44 41.26289 28.75668 315 ft 7 kts 359°
2026-05-04 12:44 41.26492 28.75665 310 ft 66 kts 359°
2026-05-04 12:44 41.27193 28.75654 301 ft 134 kts 360°
2026-05-04 12:45 41.28273 28.75643 700 ft 162 kts 358°
2026-05-04 12:45 41.29387 28.75664 1767 ft 160 kts 11°
2026-05-04 12:45 41.30367 28.76480 2514 ft 182 kts 46°
2026-05-04 12:45 41.31365 28.77659 2765 ft 204 kts 22°
2026-05-04 12:46 41.32707 28.78467 3025 ft 225 kts 25°
2026-05-04 12:46 41.34147 28.79475 3479 ft 239 kts 26°
2026-05-04 12:46 41.35616 28.80544 4319 ft 239 kts 26°
2026-05-04 12:46 41.37040 28.81718 5095 ft 247 kts 39°
2026-05-04 12:47 41.38043 28.83622 5905 ft 259 kts 62°
2026-05-04 12:47 41.38421 28.86014 6664 ft 272 kts 82°
2026-05-04 12:47 41.38454 28.88560 7376 ft 276 kts 83°
2026-05-04 12:47 41.38222 28.91140 8065 ft 291 kts 104°
2026-05-04 12:48 41.37114 28.93448 8774 ft 307 kts 133°
2026-05-04 12:48 41.35216 28.94844 9401 ft 321 kts 166°
2026-05-04 12:48 41.33006 28.94971 10023 ft 326 kts 191°
2026-05-04 12:48 41.30862 28.93936 10357 ft 335 kts 216°
2026-05-04 12:49 41.29067 28.91893 10538 ft 348 kts 230°
2026-05-04 12:49 41.27357 28.89497 10769 ft 365 kts 232°
2026-05-04 12:49 41.25624 28.86969 11252 ft 372 kts 232°
2026-05-04 12:49 41.23872 28.84400 11881 ft 377 kts 232°
2026-05-04 12:50 41.22086 28.81798 12499 ft 383 kts 231°
2026-05-04 12:50 41.20269 28.79173 13136 ft 388 kts 231°
2026-05-04 12:50 41.18414 28.76509 13717 ft 395 kts 230°
2026-05-04 12:50 41.16553 28.73852 14303 ft 400 kts 230°
2026-05-04 12:51 41.14626 28.71111 15019 ft 401 kts 230°
2026-05-04 12:51 41.12743 28.68440 15720 ft 403 kts 230°
2026-05-04 12:51 41.10814 28.65708 16357 ft 407 kts 229°
2026-05-04 12:51 41.08867 28.62952 16934 ft 411 kts 229°
2026-05-04 12:52 41.06906 28.60179 17604 ft 414 kts 229°
2026-05-04 12:52 41.04935 28.57395 18281 ft 416 kts 229°
2026-05-04 12:52 41.02943 28.54583 18815 ft 420 kts 229°
2026-05-04 12:52 41.00935 28.51750 19311 ft 424 kts 229°
2026-05-04 12:53 40.98901 28.48885 19821 ft 428 kts 229°
2026-05-04 12:53 40.96850 28.45997 20330 ft 432 kts 229°
2026-05-04 12:53 40.94788 28.43097 20825 ft 436 kts 229°
2026-05-04 12:53 40.92700 28.40164 21299 ft 440 kts 229°
2026-05-04 12:54 40.90592 28.37206 21762 ft 444 kts 229°
2026-05-04 12:54 40.88466 28.34225 22244 ft 447 kts 229°
2026-05-04 12:54 40.86323 28.31223 22723 ft 451 kts 229°
2026-05-04 12:54 40.84160 28.28197 23180 ft 454 kts 228°
2026-05-04 12:55 40.81982 28.25152 23615 ft 458 kts 228°
2026-05-04 12:55 40.79812 28.22122 23992 ft 461 kts 228°
2026-05-04 12:55 40.77599 28.19036 24416 ft 462 kts 228°
2026-05-04 12:55 40.75387 28.15953 24828 ft 464 kts 228°
2026-05-04 12:56 40.73151 28.12841 25219 ft 467 kts 228°
2026-05-04 12:56 40.70917 28.09735 25601 ft 469 kts 228°
2026-05-04 12:56 40.68668 28.06610 25977 ft 471 kts 228°
2026-05-04 12:56 40.66406 28.03470 26347 ft 473 kts 227°
2026-05-04 12:57 40.64129 28.00315 26732 ft 475 kts 227°
2026-05-04 12:57 40.61845 27.97151 27080 ft 477 kts 227°
2026-05-04 12:57 40.59551 27.93978 27433 ft 480 kts 227°
2026-05-04 12:57 40.57250 27.90797 27769 ft 482 kts 227°
2026-05-04 12:58 40.54927 27.87591 28103 ft 484 kts 227°
2026-05-04 12:58 40.52598 27.84379 28426 ft 486 kts 227°
2026-05-04 12:58 40.50284 27.81191 28735 ft 488 kts 227°
2026-05-04 12:58 40.47930 27.77952 29035 ft 490 kts 227°
2026-05-04 12:59 40.45567 27.74703 29312 ft 493 kts 227°
2026-05-04 12:59 40.43194 27.71443 29588 ft 496 kts 227°
2026-05-04 12:59 40.40803 27.68163 29894 ft 497 kts 227°
2026-05-04 12:59 40.38381 27.64920 30202 ft 498 kts 222°
2026-05-04 13:00 40.35612 27.62230 30575 ft 496 kts 209°
2026-05-04 13:00 40.32520 27.60279 31050 ft 489 kts 198°
2026-05-04 13:00 40.29267 27.59095 31472 ft 483 kts 187°
2026-05-04 13:00 40.25951 27.58459 31842 ft 481 kts 185°
2026-05-04 13:01 40.22637 27.57888 32141 ft 481 kts 185°
2026-05-04 13:01 40.19322 27.57321 32478 ft 479 kts 185°
2026-05-04 13:01 40.16016 27.56737 32901 ft 477 kts 185°
2026-05-04 13:01 40.12741 27.56135 33327 ft 474 kts 186°
2026-05-04 13:02 40.09496 27.55523 33680 ft 472 kts 186°
2026-05-04 13:02 40.06244 27.54901 34009 ft 471 kts 186°
2026-05-04 13:02 40.03001 27.54278 34275 ft 470 kts 186°
2026-05-04 13:02 39.99761 27.53655 34504 ft 470 kts 186°
2026-05-04 13:03 39.96522 27.53034 34731 ft 470 kts 186°
2026-05-04 13:03 39.93325 27.52422 34959 ft 470 kts 187°
2026-05-04 13:03 39.90050 27.51797 35219 ft 469 kts 187°
2026-05-04 13:03 39.86872 27.51192 35476 ft 468 kts 187°
2026-05-04 13:04 39.83653 27.50579 35690 ft 468 kts 187°
2026-05-04 13:04 39.80427 27.49966 35889 ft 468 kts 187°
2026-05-04 13:04 39.77208 27.49354 36047 ft 468 kts 187°
2026-05-04 13:05 39.70731 27.48125 36053 ft 470 kts 187°
2026-05-04 13:05 39.64273 27.46908 36042 ft 467 kts 187°
2026-05-04 13:06 39.57851 27.45703 36054 ft 464 kts 187°
2026-05-04 13:06 39.51462 27.44505 36055 ft 463 kts 187°
2026-05-04 13:07 39.45128 27.43320 36060 ft 463 kts 187°
2026-05-04 13:07 39.38742 27.42126 36050 ft 464 kts 188°
2026-05-04 13:08 39.32345 27.40931 36056 ft 465 kts 188°
2026-05-04 13:08 39.25916 27.39729 36056 ft 467 kts 188°
2026-05-04 13:09 39.19461 27.38524 36052 ft 469 kts 188°
2026-05-04 13:09 39.12996 27.37319 36046 ft 470 kts 188°
2026-05-04 13:10 39.06509 27.36113 36046 ft 471 kts 188°
2026-05-04 13:10 39.00003 27.35008 36030 ft 471 kts 183°
2026-05-04 13:11 38.93484 27.35466 36037 ft 468 kts 174°
2026-05-04 13:11 38.87077 27.36357 36026 ft 463 kts 174°
2026-05-04 13:12 38.80686 27.37195 36032 ft 460 kts 175°
2026-05-04 13:12 38.74318 27.37975 35743 ft 464 kts 175°
2026-05-04 13:12 38.71084 27.38364 35236 ft 466 kts 175°
2026-05-04 13:13 38.67863 27.38751 34758 ft 464 kts 174°
2026-05-04 13:13 38.64652 27.39138 34304 ft 461 kts 174°
2026-05-04 13:13 38.61503 27.39518 33811 ft 459 kts 174°
2026-05-04 13:13 38.58327 27.39902 33277 ft 457 kts 173°
2026-05-04 13:14 38.55153 27.40285 32750 ft 463 kts 173°
2026-05-04 13:14 38.51911 27.40677 32245 ft 472 kts 173°
2026-05-04 13:14 38.48627 27.41073 31736 ft 475 kts 173°
2026-05-04 13:14 38.45360 27.41468 31225 ft 470 kts 173°
2026-05-04 13:15 38.42126 27.41857 30731 ft 464 kts 173°
2026-05-04 13:15 38.38925 27.42243 30229 ft 459 kts 172°
2026-05-04 13:15 38.35758 27.42626 29687 ft 455 kts 172°
2026-05-04 13:15 38.32612 27.43006 29124 ft 452 kts 173°
2026-05-04 13:16 38.29498 27.43383 28545 ft 448 kts 173°
2026-05-04 13:16 38.26400 27.43757 27957 ft 446 kts 173°
2026-05-04 13:16 38.23314 27.44129 27385 ft 444 kts 173°
2026-05-04 13:16 38.20242 27.44498 26822 ft 443 kts 174°
2026-05-04 13:17 38.17168 27.44868 26254 ft 443 kts 174°
2026-05-04 13:17 38.14147 27.45229 25716 ft 441 kts 174°
2026-05-04 13:17 38.11096 27.45592 25187 ft 439 kts 175°
2026-05-04 13:17 38.08045 27.45955 24643 ft 437 kts 175°
2026-05-04 13:18 38.05041 27.46311 24132 ft 435 kts 175°
2026-05-04 13:18 38.02005 27.46672 23617 ft 434 kts 175°
2026-05-04 13:18 37.99023 27.47026 23009 ft 426 kts 175°
2026-05-04 13:18 37.96129 27.47369 22430 ft 419 kts 175°
2026-05-04 13:19 37.93246 27.47711 21893 ft 411 kts 175°
2026-05-04 13:19 37.90426 27.48044 21367 ft 405 kts 176°
2026-05-04 13:19 37.87626 27.48539 20870 ft 407 kts 167°
2026-05-04 13:19 37.84890 27.49451 20457 ft 406 kts 165°
2026-05-04 13:20 37.82182 27.50425 20032 ft 405 kts 164°
2026-05-04 13:20 37.79476 27.51400 19622 ft 404 kts 165°
2026-05-04 13:20 37.76775 27.52358 19206 ft 403 kts 165°
2026-05-04 13:20 37.74067 27.53301 18780 ft 404 kts 165°
2026-05-04 13:21 37.71268 27.54265 18330 ft 405 kts 165°
2026-05-04 13:21 37.68631 27.55171 17849 ft 406 kts 165°
2026-05-04 13:21 37.65902 27.56109 17322 ft 406 kts 165°
2026-05-04 13:21 37.63182 27.57043 16817 ft 404 kts 165°
2026-05-04 13:22 37.60513 27.58100 16320 ft 402 kts 154°
2026-05-04 13:22 37.58210 27.60039 15905 ft 394 kts 134°
2026-05-04 13:22 37.56497 27.62614 15547 ft 386 kts 123°
2026-05-04 13:22 37.54940 27.65343 15148 ft 381 kts 122°
2026-05-04 13:23 37.53423 27.68060 14799 ft 377 kts 121°
2026-05-04 13:23 37.51922 27.70746 14458 ft 373 kts 121°
2026-05-04 13:23 37.50460 27.73340 14121 ft 369 kts 122°
2026-05-04 13:23 37.48974 27.75958 13789 ft 366 kts 122°
2026-05-04 13:24 37.47494 27.78549 13400 ft 363 kts 122°
2026-05-04 13:24 37.46023 27.81116 13039 ft 356 kts 122°
2026-05-04 13:24 37.44591 27.83603 12669 ft 345 kts 122°
2026-05-04 13:25 37.41858 27.88340 12026 ft 324 kts 122°
2026-05-04 13:25 37.40544 27.90621 11727 ft 321 kts 122°
2026-05-04 13:25 37.39236 27.92890 11425 ft 319 kts 122°
2026-05-04 13:25 37.37955 27.95112 11148 ft 316 kts 122°
2026-05-04 13:26 37.36667 27.97342 10872 ft 314 kts 122°
2026-05-04 13:26 37.35384 27.99563 10590 ft 313 kts 122°
2026-05-04 13:26 37.34118 28.01751 10262 ft 306 kts 122°
2026-05-04 13:26 37.32878 28.03892 9969 ft 299 kts 121°
2026-05-04 13:27 37.31664 28.05987 9643 ft 292 kts 121°
2026-05-04 13:27 37.30481 28.08030 9318 ft 286 kts 121°
2026-05-04 13:27 37.29319 28.10033 8982 ft 281 kts 121°
2026-05-04 13:27 37.28177 28.11998 8667 ft 276 kts 121°
2026-05-04 13:28 37.27056 28.13927 8328 ft 272 kts 121°
2026-05-04 13:28 37.25797 28.15704 8040 ft 277 kts 143°
2026-05-04 13:28 37.24018 28.16574 7845 ft 276 kts 176°
2026-05-04 13:28 37.22133 28.16334 7695 ft 270 kts 199°
2026-05-04 13:29 37.20375 28.15658 7540 ft 267 kts 200°
2026-05-04 13:29 37.18612 28.14960 7395 ft 265 kts 201°
2026-05-04 13:29 37.16875 28.14218 7264 ft 260 kts 212°
2026-05-04 13:29 37.15610 28.12788 7154 ft 234 kts 250°
2026-05-04 13:30 37.15333 28.10948 7049 ft 204 kts 284°
2026-05-04 13:30 37.15512 28.09219 7016 ft 199 kts 286°
2026-05-04 13:30 37.15630 28.08073 6925 ft 200 kts 285°
2026-05-04 13:30 37.15847 28.06366 6869 ft 195 kts 289°
2026-05-04 13:31 37.16132 28.04729 6858 ft 188 kts 291°
2026-05-04 13:31 37.16454 28.03179 6864 ft 181 kts 292°
2026-05-04 13:31 37.16797 28.01654 6878 ft 181 kts 294°
2026-05-04 13:31 37.17148 28.00143 6818 ft 183 kts 294°
2026-05-04 13:32 37.17519 27.98575 6526 ft 189 kts 293°
2026-05-04 13:32 37.17887 27.97003 6201 ft 187 kts 293°
2026-05-04 13:32 37.18254 27.95442 5826 ft 185 kts 294°
2026-05-04 13:32 37.18605 27.93930 5508 ft 175 kts 295°
2026-05-04 13:33 37.18934 27.92504 5266 ft 171 kts 292°
2026-05-04 13:33 37.19283 27.91024 4961 ft 183 kts 294°
2026-05-04 13:33 37.19656 27.89488 4598 ft 184 kts 293°
2026-05-04 13:33 37.19991 27.87998 4346 ft 172 kts 293°
2026-05-04 13:34 37.20346 27.86553 4033 ft 173 kts 294°
2026-05-04 13:34 37.20697 27.85097 3706 ft 173 kts 293°
2026-05-04 13:34 37.21037 27.83661 3398 ft 169 kts 292°
2026-05-04 13:34 37.21365 27.82285 3105 ft 164 kts 293°
2026-05-04 13:35 37.21678 27.80958 2845 ft 152 kts 292°
2026-05-04 13:35 37.22248 27.78552 2324 ft 142 kts 294°
2026-05-04 13:35 37.22531 27.77373 2079 ft 141 kts 294°
2026-05-04 13:36 37.22811 27.76194 1833 ft 141 kts 292°
2026-05-04 13:36 37.23094 27.75007 1583 ft 143 kts 293°
2026-05-04 13:36 37.23372 27.73826 1311 ft 138 kts 294°
2026-05-04 13:36 37.23643 27.72682 1047 ft 136 kts 294°
2026-05-04 13:37 37.23913 27.71552 797 ft 135 kts 294°
2026-05-04 13:37 37.24186 27.70417 561 ft 137 kts 292°
2026-05-04 13:37 37.24463 27.69257 331 ft 144 kts 293°
2026-05-04 13:37 37.24746 27.68039 80 ft 143 kts 291°
2026-05-04 13:38 37.25015 27.66932 28 ft 116 kts 287°
2026-05-04 13:38 37.25199 27.66163 29 ft 56 kts 287°
2026-05-04 13:38 37.25265 27.65838 28 ft 25 kts 267°
2026-05-04 13:38 37.25233 27.65656 28 ft 16 kts 256°
2026-05-04 13:39 37.25200 27.65557 29 ft 10 kts 206°
2026-05-04 13:39 37.25163 27.65588 29 ft 7 kts 113°
2026-05-04 13:39 37.25142 27.65672 29 ft 14 kts 107°
2026-05-04 13:39 37.25105 27.65827 29 ft 22 kts 107°
2026-05-04 13:40 37.25054 27.66040 29 ft 27 kts 107°
2026-05-04 13:40 37.25003 27.66258 30 ft 26 kts 106°
2026-05-04 13:40 37.24955 27.66462 27 ft 14 kts 108°
2026-05-04 13:40 37.24875 27.66505 28 ft 14 kts 194°
2026-05-04 13:41 37.24790 27.66511 29 ft 11 kts 141°
2026-05-04 13:41 37.24761 27.66599 29 ft 11 kts 106°
2026-05-04 13:41 37.24738 27.66695 29 ft 13 kts 107°
2026-05-04 13:42 37.24669 27.66982 29 ft 19 kts 107°
2026-05-04 13:42 37.24633 27.67137 29 ft 18 kts 106°
2026-05-04 13:42 37.24608 27.67235 29 ft 9 kts 107°
2026-05-04 13:42 37.24591 27.67309 28 ft 8 kts 108°
2026-05-04 13:43 37.24545 27.67334 29 ft 7 kts 191°
2026-05-04 13:43 37.24514 27.67321 29 ft 0 kts 197°